sat.trackr.live / text

‹ back to catalog

JASON-3

NORAD 41240 · 2016-002A

PAYLOAD ACTIVE UNKNOWN

§ Identity

Operator
Country
US
Launch date
2016-01-17
Launch site
AFWTR
Launch vehicle
Mass (kg)
RCS (m²)
2.71

Purposes: earth_obs

External: N2YO · Heavens-Above · Gunter

§ Orbital elements

Epoch: 2026-05-25T04:01:28.550784Z

Period
111.83 min
Inclination
66.0392°
Eccentricity
0.0008535
Mean motion
12.87627391 rev/d
Perigee alt
1,304.4 km
Apogee alt
1,317.5 km
Semi-major
7,689.1 km
B*
4.0931e-5
RAAN
174.2320°
Arg perigee
273.5272°
Mean anomaly
86.4771°
Rev number
48,428

§ Raw data

JASON-31 41240U 16002A   26145.16769156 -.00000052  00000+0  40931-4 0  99972 41240  66.0392 174.2320 0008535 273.5272  86.4771 12.87627391484282

JSON: /api/v1/satellites/41240 · /tle

For live sub-satellite position, see the globe view (requires WebGL).

§ Visibility from observer

Set your observer location to see the next 7 days of passes ≥ 10°. The values pass through the URL so the page stays shareable.

No JS? Fill the form by hand. The geolocation button needs JavaScript.

§ Radio — SatNOGS DB

ModeDescriptionDownlinkUplink
FSK Mode S - TM 2215.92 MHz, 2000 kHz, RHCP & LHCP, 838.861 Kbps 2.216 GHz

1 transmitter · refreshed weekly from db.satnogs.org